Cloud_Cover
0 2 0 0 56 100 100 74 100 51 88 54 84 21 62 10 3 3 1 2 0 9 4 13 1 4 3 6 9 0 0 0 0 0 0 0 0 0 0 0 0 0 0 0 0 0 0 0 0
0 1 0 82 66 100 99 38 32 13 2 3 34 37 84 0 0 0 0 0 0 1 5 3 0 0 0 0 11 10 40 0 0 0 0 0 0 0 0 0 0 0 0 0 0 0 0 0 0
5 0 0 41 95 100 53 4 5 11 1 3 100 92 0 0 0 0 0 0 0 17 0 0 0 0 0 0 17 13 3 0 0 0 0 0 0 0 1 5 5 5 4 0 0 0 4 2 2
0 0 0 3 100 0 2 0 5 84 100 91 4 100 0 0 0 0 0 0 1 0 14 0 0 0 0 1 6 25 23 0 0 0 0 3 18 47 5 4 5 5 5 85 54 58 79 51 5
0 0 26 100 6 5 5 4 6 100 94 87 46 95 0 0 0 0 0 0 0 0 0 0 0 0 0 0 0 2 70 54 98 36 5 42 93 17 42 68 3 0 1 8 98 99 82 8 5
0 0 100 96 5 0 0 14 10 95 96 44 4 92 1 0 0 0 0 0 0 0 0 0 0 0 0 0 0 0 0 0 8 17 3 0 0 9 29 12 3 2 16 100 100 83 10 5 5
0 24 12 5 5 0 21 23 25 100 99 24 31 100 100 99 0 0 0 2 0 0 0 0 0 0 0 0 0 0 0 0 0 0 0 0 0 0 0 1 3 4 5 16 8 1 0 0 0
0 0 2 2 5 0 3 42 5 0 6 2 0 80 87 97 13 0 0 5 5 16 0 0 0 0 0 0 0 0 0 0 0 0 0 0 0 0 0 0 4 5 5 5 0 0 0 0 0
0 0 30 0 0 0 2 50 5 9 6 0 0 0 0 0 1 26 50 25 23 67 86 33 1 2 0 29 0 0 0 0 0 0 0 0 0 0 0 0 0 5 5 5 4 0 0 0 0
0 5 0 0 0 0 5 0 0 80 79 4 0 0 0 3 6 70 85 76 54 99 99 69 35 42 22 20 0 0 5 1 0 2 3 3 24 0 0 0 0 1 5 2 0 0 0 0 0
0 0 0 0 0 0 0 0 0 15 0 4 5 3 0 11 4 90 36 51 60 48 99 100 40 54 30 53 98 29 100 47 85 96 21 90 93 99 100 100 85 91 52 13 2 0 0 9 17
0 0 0 0 0 0 0 0 0 0 0 0 1 10 30 55 83 93 74 14 86 100 100 35 94 99 99 25 97 100 36 100 57 100 100 100 100 100 100 100 100 100 100 100 100 100 91 82 100
100 41 2 0 0 0 0 0 0 0 0 1 19 29 42 38 49 33 100 100 100 100 98 45 34 27 58 87 100 100 100 100 100 100 100 100 100 100 100 100 100 100 100 86 39 100 100 100 100
100 99 0 0 0 0 0 86 100 3 19 91 27 2 5 66 100 98 100 100 67 89 85 98 4 46 100 97 81 95 100 100 100 100 100 100 100 100 100 100 100 100 98 5 5 20 91 100 100
100 24 2 5 0 0 78 100 96 2 9 54 7 4 77 100 100 59 8 13 100 100 98 100 44 5 100 100 100 46 100 100 100 100 100 100 100 100 100 100 100 100 100 100 100 100 74 100 100
76 5 86 38 0 0 100 100 100 4 12 8 0 1 100 98 97 97 47 12 100 100 100 100 100 100 100 100 92 86 100 99 59 92 100 100 100 100 100 100 100 100 100 68 54 25 51 13 48
50 56 90 19 0 42 40 97 3 0 13 8 0 0 100 26 100 100 95 74 60 100 100 100 99 100 100 100 100 100 100 100 100 100 100 100 100 100 100 96 93 100 96 100 94 100 77 7 21
15 4 83 99 50 0 93 2 0 0 4 0 0 0 84 100 91 100 100 100 100 94 100 100 98 100 100 100 100 100 100 100 47 100 100 100 70 96 29 41 43 37 100 100 73 87 47 44 72
5 7 96 5 1 96 57 29 67 0 0 0 0 0 44 100 100 74 100 98 91 95 60 82 100 100 85 3 47 100 100 100 100 2 4 5 1 1 28 17 12 62 40 100 100 100 95 92 56
5 68 44 3 0 4 93 90 100 67 5 0 0 0 5 6 87 67 72 72 89 99 38 86 8 3 1 0 0 0 0 16 34 5 5 1 12 2 4 4 13 22 67 39 85 100 100 64 75
5 94 3 61 2 0 82 96 100 60 73 18 0 0 4 5 94 93 100 89 98 85 40 50 43 5 53 32 2 0 0 0 0 1 1 1 2 0 0 0 5 4 6 49 32 15 99 100 100
5 5 0 0 0 99 17 39 100 100 100 100 93 32 20 5 26 75 100 100 32 56 53 6 58 52 10 5 4 4 5 5 5 4 11 5 5 90 40 7 59 82 5 6 57 57 26 72 94
5 5 2 0 4 5 43 52 100 100 100 100 44 66 100 62 100 100 93 100 100 100 100 100 76 100 95 22 32 18 12 35 15 2 0 44 62 3 100 97 96 40 35 3 5 9 18 58 36
5 67 5 1 0 86 100 47 76 100 83 98 53 61 96 20 82 93 100 100 22 100 100 100 92 16 100 96 5 99 4 5 5 1 7 23 55 3 22 34 100 1 0 1 2 26 28 39 71
51 89 73 100 100 85 5 3 0 45 2 12 16 5 14 100 97 99 100 95 89 100 100 98 64 25 98 8 100 99 5 21 17 25 62 98 98 100 99 81 81 46 16 17 32 56 88 69 61
51 93 20 14 56 79 5 81 3 0 0 0 33 98 100 100 97 99 62 89 100 100 98 38 96 98 87 100 100 71 32 100 67 100 85 68 100 100 100 100 100 98 95 72 79 71 67 96 100
95 100 30 5 12 35 100 51 5 10 23 2 19 85 97 80 63 6 93 100 100 90 24 26 37 74 96 50 100 69 100 93 76 100 100 100 100 100 100 100 100 100 100 100 100 100 100 56 100
64 100 100 65 15 5 86 43 26 79 4 0 1 72 96 3 50 84 42 72 27 5 37 8 9 44 2 40 54 54 85 82 80 98 100 99 33 100 100 100 100 100 100 100 100 100 100 100 100
100 100 100 7 51 5 11 16 1 1 5 0 11 52 44 25 19 11 12 17 5 3 23 30 17 81 59 19 13 16 53 80 9 82 100 100 71 97 95 100 100 100 88 97 100 100 100 100 100
100 100 38 87 30 25 5 29 0 5 0 0 3 20 10 5 5 5 91 6 5 67 20 6 50 96 86 18 54 96 67 94 99 83 81 100 100 100 100 98 100 100 100 95 100 100 100 100 100